Regional Weather Roundup
Issued by NWS Portland, ME

Home | Current Version | Previous Version | Text Only | Print | Product List | Glossary On
Versions: 1 2 3 4 5 6 7 8 9 10 11 12 13 14 15 16 17 18 19 20 21 22 23 24 25 26 27 28 29 30 31 32 33 34 35 36 37 38 39 40 41 42 43 44 45 46 47 48 49 50
454
ASUS41 KGYX 291710
RWRGYX
WEATHER ROUNDUP FOR MAINE AND NEW HAMPSHIRE
NATIONAL WEATHER SERVICE GRAY ME
100 PM EDT SAT APR 29 2017

MEZ002-005-006-010-012-015-018-020-021-024-026-027-029-291800-
MAINE

CITY           SKY/WX    TMP DP  RH WIND       PRES   REMARKS
PORTLAND       CLOUDY    80  47  31 W14G30    29.79F
SANFORD        CLOUDY    78  49  35 W16G26    29.82F
WISCASSET      CLOUDY    75  50  41 S8        29.80F
ROCKLAND       CLOUDY    72  50  45 SW14      29.78F
FRYEBURG       CLOUDY    74  46  36 W10G18    29.81F
LEWISTONAUBURN CLOUDY    75  48  38 W15G25    29.79F
AUGUSTA        CLOUDY    78  45  30 W9        29.78F
BANGOR         PTSUNNY   74  43  32 W12G21    29.76F
GREENVILLE       N/A     67  41  38 VRB7      29.75F
MILLINOCKET    PTSUNNY   69  50  50 VRB3      29.75F
HOULTON        PTSUNNY   66  49  54 SW9       29.73F
PRESQUE ISLE   CLOUDY    64  41  42 W15G23    29.73S
FRENCHVILLE    CLOUDY    59  40  49 SW18G30   29.69F
CARIBOU        CLOUDY    62  41  46 W9G18     29.71S
$$

NHZ002-005-008-009-011-012-014-291800-
NEW HAMPSHIRE

CITY           SKY/WX    TMP DP  RH WIND       PRES   REMARKS
PORTSMOUTH     PTSUNNY   81  52  36 W9        29.80F
ROCHESTER      PTSUNNY   80  49  33 W9G22     29.81F
NASHUA         CLOUDY    80  55  42 W9        29.85F
MANCHESTER     CLOUDY    80  49  33 W9G21     29.83F
CONCORD        CLOUDY    77  49  37 W13G21    29.84F
LACONIA        CLOUDY    73  47  39 W12       29.85F
PLYMOUTH       CLOUDY    72  47  41 W15G22    29.86S
BERLIN         CLOUDY    70  41  34 NW8G20    29.83F
WHITEFIELD     CLOUDY    69  44  40 W12       29.85F
JAFFREY        CLOUDY    76  54  46 W14G23    29.91F
KEENE          CLOUDY    76  53  44 W12G18    29.89F
LEBANON        CLOUDY    73  48  41 SW14G22   29.87F
MT WASHINGTON  CLOUDY    42  41  97 W51G60      N/A
$$

VTZ005-007-008-291800-
VERMONT

CITY           SKY/WX    TMP DP  RH WIND       PRES   REMARKS
ST JOHNSBURY     N/A     70  39  32 MISG      29.84F
MONTPELIER     CLOUDY    68  48  48 W14G23    29.92F
BURLINGTON     CLOUDY    71  44  37 W10G18    29.87F
$$

MAZ007-012-024-CTZ003-RIZ002-NYZ038-NYZ072-291800-
SOUTHERN NEW ENGLAND AND NY

CITY           SKY/WX    TMP DP  RH WIND       PRES   REMARKS
BOSTON         CLOUDY    82  56  40 SW16G25   29.84F
WORCESTER      PTSUNNY   75  54  47 W16G24    29.91F
NANTUCKET      FOG       57  53  86 SW17      29.94F VSB 3/4
PROVIDENCE     CLOUDY    81  64  56 W13       29.89F
HARTFORD       CLOUDY    80  59  48 W12       29.89F
ALBANY         CLOUDY    66  51  58 NW17      29.98S
NEW YORK CITY  CLOUDY    83  60  45 W15G24    29.94F
$$

ANZ081-ANZ082-ANZ150-NHZ014-MEZ023>029-291800-
COASTAL MARINE OBSERVATIONS

STATION/POSITION TIME  TEMP    WIND        PRES    WAVE
                       AIR SEA DIR/SP/G            HT/PER
                 (UTC) (F)     (DEG/KT/KT) (MB)    (FT/S)
MOUNT DESERT ROC 1700   48                 1009.0F
MATINICUS ROCK   1600   55     220/ 24/ 25 1009.8F
ISLE OF SHOALS   1600   70     190/ 17/ 17 1010.6F
JEFFREYS LEDGE   1606      45                N/A     3/ 8
CASHES LEDGE BUO 1650   51 44              1010.0F   3/ 9
GEORGES BANK BUO 1550   47 40              1016.6    4/ 7
$$

.............KEY..............
   WCI - WIND CHILL
   TC  - TEMPERATURE IN CELSIUS
   VSB - VISIBILITY IN MILES
   HX  - HEAT INDEX
   FAIR- INDICATES FEW OR NO CLOUDS BELOW 12,000 FT, WITH NO
         SIGNIFICANT WEATHER AND/OR OBSTRUCTIONS TO VISIBILITY.






USA.gov is the U.S. government's official web portal to all federal, state and local government web resources and services.